Regional Weather Roundup
Issued by NWS

Home | Current Version | Previous Version | Text Only | Print | Product List | Glossary On
Versions: 1 2 3 4 5 6 7 8 9 10 11 12 13 14 15 16 17 18 19 20 21 22 23 24 25 26 27 28 29 30 31 32 33 34 35 36 37 38 39 40 41 42 43 44 45 46 47 48 49 50
000
ASUS46 KPQR 281010
RWROR

OREGON REGIONAL WEATHER ROUNDUP
NATIONAL WEATHER SERVICE PORTLAND OR
300 AM PDT THU AUG 28 2014

NOTE: "FAIR" INDICATES FEW OR NO CLOUDS BELOW 12,000 FEET WITH
NO SIGNIFICANT WEATHER AND/OR OBSTRUCTIONS TO VISIBILITY.

ORZ001>013-281100-
NORTHWEST OREGON


CITY           SKY/WX    TMP DP  RH WIND       PRES   REMARKS
ASTORIA        CLOUDY    60  58  92 NW5       30.11R
NEWPORT        FOG       50  50 100 CALM      30.13R VSB 1/2
PORTLAND       FAIR      64  56  75 N5        30.07R
VANCOUVER WA   FAIR      63  54  72 CALM      30.06R
SCAPPOOSE      FAIR      63  54  72 N5        30.06R
HILLSBORO      FAIR      60  54  80 NW3       30.06R
AURORA         FAIR      63  54  72 N5        30.07R
MCMINNVILLE    FAIR      61  55  81 W3        30.07R
SALEM          FAIR      62  55  77 CALM      30.05R
CORVALLIS      FAIR      61  54  77 NW8       30.07S
EUGENE         FAIR      62  53  72 CALM      30.06R
$$

ORZ021-028-281100-
SOUTHWEST OREGON


CITY           SKY/WX    TMP DP  RH WIND       PRES   REMARKS
NORTH BEND     CLOUDY    55  55 100 N5        30.12R
BROOKINGS      FAIR      53  53 100 CALM      30.05F
ROSEBURG       FAIR      67  54  63 CALM      30.06R
SEXTON SUMMIT  FAIR      64  47  53 N10       30.16S
MEDFORD        FAIR      68  51  54 CALM      30.05R
$$

ORZ009-041-281100-
COLUMBIA GORGE


CITY           SKY/WX    TMP DP  RH WIND       PRES   REMARKS
TROUTDALE      FAIR      63  56  78 W3        30.05R
THE DALLES     FAIR      72  60  66 NW14      29.97R
$$

ORZ029>031-042>050-061>064-281100-
EASTERN OREGON


CITY           SKY/WX    TMP DP  RH WIND       PRES   REMARKS
REDMOND        FAIR      54  46  74 S3        30.11S
BEND           FAIR      55  46  71 CALM      30.15S
KLAMATH FALLS  CLOUDY    56  46  69 CALM      30.19S
LAKEVIEW       FAIR      52  37  58 S3        30.24R
HERMISTON      FAIR      76  55  48 SW10      29.95S
PENDLETON      FAIR      74  51  44 S13       30.00S
JOHN DAY       FAIR      67  47  49 CALM      30.14S
MEACHAM        FAIR      51  46  83 CALM      30.13S
LA GRANDE      FAIR      70  41  35 NW8       30.07R
BAKER CITY     FAIR      53  45  74 S3        30.10S
BURNS          FAIR      64  42  44 W13       30.14S
ROME             N/A     65  31  28 SE10      30.11R
ONTARIO        FAIR      57  46  66 W5        30.03R
$$


USA.gov is the U.S. government's official web portal to all federal, state and local government web resources and services.